Regional Weather Roundup
Issued by NWS

Home | Current Version | Previous Version | Graphics & Text | Print | Product List | Glossary On
Versions: 1 2 3 4 5 6 7 8 9 10 11 12 13 14 15 16 17 18 19 20 21 22 23 24 25 26 27 28 29 30 31 32 33 34 35 36 37 38 39 40 41 42 43 44 45 46 47 48 49 50
000
ASUS45 KTFX 282010
RWRMT
MONTANA REGIONAL WEATHER ROUNDUP
NATIONAL WEATHER SERVICE GREAT FALLS MT
200 PM MDT TUE MAR 28 2017

NOTE: "FAIR" INDICATES FEW OR NO CLOUDS BELOW 12000 FEET WITH NO
SIGNIFICANT WEATHER AND/OR OBSTRUCTIONS TO VISIBILITY.

MTZ001>007-043-282100-
WEST OF THE DIVIDE

CITY           SKY/WX    TMP DP  RH WIND       PRES   REMARKS
KALISPELL      CLOUDY    44  33  65 SE12      30.18F
MISSOULA       CLOUDY    47  29  49 NW8       30.22F
BUTTE          MOSUNNY   43  16  33 VRB6      30.15F
MULLAN PASS    LGT SNOW  28  27  96 VRB6      30.16S FOG     WCI  22
ANACONDA         N/A     43  18  36 W12G18    30.15F
DEER LODGE       N/A     45  19  36 CALM      30.18F
EUREKA           N/A     46  30  53 S8        30.16S
HAMILTON         N/A     48  19  32 SE6       30.20F
PLAINS           N/A     49  30  48 CALM      30.20
RONAN            N/A     46  28  49 S2        30.23S
$$

MTZ008-052>055-282100-
SOUTHWEST MONTANA

CITY           SKY/WX    TMP DP  RH WIND       PRES   REMARKS
BOZEMAN        MOSUNNY   47  21  35 SW8       30.15F
DILLON         SUNNY     46  19  34 CALM      30.14F
W YELLOWSTONE  SUNNY     37  12  35 W6        30.14S
ENNIS          MOSUNNY   45  21  39 CALM      30.20S
THREE FORKS      N/A     50  50 100 W12       30.13F
$$

MTZ009-010-012-014-046-048-049-054-282100-
EAST SLOPES AND CENTRAL MONTANA

CITY           SKY/WX    TMP DP  RH WIND       PRES   REMARKS
CUT BANK       PTSUNNY   50  23  34 W30G39    30.02F
GREAT FALLS    PTSUNNY   50  21  32 W21       30.07F
MALMSTROM AFB  PTSUNNY   50  22  33 SW24G30   30.08F
HELENA         MOSUNNY   49  21  33 W18G30    30.13F
AUGUSTA          N/A     46  19  33 W22G32    30.07F
BOWMANS CRNR     N/A     45  20  37 SW17G24   30.07F
CHOTEAU          N/A     50  19  29 W13G23    30.07F
CONRAD           N/A     53  24  32 S9        30.05F
FAIRFIELD        N/A     48  18  29 SW18G26   30.06F
POWER            N/A     50  18  28 SW21G32   30.06S
RAYNESFORD       N/A     47  22  37 SW14G21   30.09F
$$

MTZ011-013-016-021-045-047-050-051-282100-
NORTH CENTRAL MONTANA

CITY           SKY/WX    TMP DP  RH WIND       PRES   REMARKS
HAVRE          SUNNY     57  24  28 SW18      30.04F
LEWISTOWN      MOSUNNY   49  19  30 NW8       30.08F
N BAR RANCH    PTSUNNY   50  21  32 E8        30.09F
CHINOOK          N/A     55  21  26 SW14G21   30.04F
DENTON           N/A     50  20  30 W16G24    30.05F
FORT BENTON      N/A     55  19  24 MISG      30.08S
GEYSER           N/A     49  19  31 SW17G29   30.08F
GRASS RANGE      N/A     51  20  29 W17       30.04F
JUDITH GAP       N/A     48  21  35 NE9       30.07F
STANFORD         N/A     48  19  31 W12G24    30.07F
WINIFRED         N/A     52  20  28 W14G22    30.07F
$$

MTZ017>020-022>027-061-062-282100-
NORTHEAST MONTANA

CITY           SKY/WX    TMP DP  RH WIND       PRES   REMARKS
GLASGOW        MOSUNNY   53  35  50 VRB3      30.06F
JORDAN           N/A     56  29  35 CALM      30.07F
SIDNEY         PTSUNNY   46  39  76 NW7       30.08F
WOLF POINT     CLOUDY    43  37  79 SW6       30.10S
MALTA          SUNNY     57  27  30 W8G17     30.04F
PLENTYWOOD       N/A     43  37  81 CALM      30.08F
POPLAR           N/A     45  37  76 CALM      30.09F
SCOBEY           N/A     44  33  65 E2        30.04
$$

MTZ028>42-056>058-282100-
SOUTHCENTRAL AND SOUTHEAST MONTANA

CITY           SKY/WX    TMP DP  RH WIND       PRES   REMARKS
BAKER          CLOUDY    56  35  45 VRB5      30.05S
BILLINGS       MOSUNNY   53  26  35 NW8       30.10F
LIVINGSTON     SUNNY     50  21  32 W17G24    30.11F
MILES CITY     CLOUDY    50  39  66 NW10      30.10S
BIG TIMBER     SUNNY     50  21  32 W21       30.12F
EKALAKA          N/A     54  35  48 N5        30.02
FORSYTH          N/A     46  37  71 SW6       30.11S
HARLOWTON        N/A     50  21  32 W21G29    30.09F
LAUREL           N/A     53  26  35 NW1       30.09F
$$

REGIONAL REPORTS...DAKOTAS

CITY           SKY/WX    TMP DP  RH WIND       PRES   REMARKS
WILLISTON      SUNNY     55  41  59 S7        30.07F
MINOT          CLOUDY    50  41  71 E12       30.10F
DICKINSON      PTSUNNY   60  30  32 S13       30.03F
BEACH          CLOUDY    59  34  38 S10       30.07F
TIOGA          CLOUDY    50  46  87 S8        30.08F
WATFORD CITY     N/A     57  39  51 S7G15     30.05F
BISMARCK       CLOUDY    61  35  37 S13       30.11F
GRAND FORKS    CLOUDY    53  41  63 N5        30.20S
FARGO          PTSUNNY   57  39  51 CALM      30.17F
BUFFALO SD       N/A     57  40  52 SE6       29.97S
RAPID CITY     LGT RAIN  43  40  89 N5        30.05R
$$

REGIONAL REPORTS...WYOMING/IDAHO/WASHINGTON

CITY           SKY/WX    TMP DP  RH WIND       PRES   REMARKS
GILLETTE       CLOUDY    44  37  76 NW23      30.06S
SHERIDAN       CLOUDY    43  38  82 NW12      30.12F
BUFFALO WY     MOSUNNY   44  35  70 N24G38    30.08F
CODY           MOSUNNY   47  30  51 N13       30.11F
YELLOWSTONE LA   N/A     34  21  59 VRB5      30.13S
IDAHO FALLS    MOSUNNY   47  27  45 NW9       30.18F
SALMON         SUNNY     48  21  34 NE5       30.17F
BOISE          SUNNY     52  29  41 NW15      30.27F
SPOKANE        CLOUDY    45  34  65 S14       30.22S
$$

REGIONAL REPORTS...ALBERTA

CITY           SKY/WX    TMP DP  RH WIND       PRES   REMARKS
EDMONTON       FOG       36  36 100 N6        29.86F VSB 1/2 WCI  31
CALGARY        PTSUNNY   48  18  29 S7        29.88F
LETHBRIDGE     PTSUNNY   54  23  30 W30G36    29.96F
MEDICINE HAT   PTSUNNY   55  21  26 SW16G29   29.96S
WATERTON GATE    N/A     45  23  42 SW21G31     N/A
CARDSTON         N/A     48  23  37 W12G20      N/A
MILK RIVER       N/A     54  23  30 W17G25      N/A
$$

REGIONAL REPORTS...SASKATCHEWAN

CITY           SKY/WX    TMP DP  RH WIND       PRES   REMARKS
SWIFT CURRENT  SUNNY     57  30  35 SW13G20   29.95F
REGINA         CLOUDY    39  36  87 SE14      30.08F WCI  31
SASKATOON      CLOUDY    43  36  75 SE13G20   30.02F
CYPRESS HILLS    N/A     50  21  32 W14         N/A
VAL MARIE        N/A     57  25  28 W14G23      N/A
ROCKGLEN         N/A     52  36  54 SW13G21     N/A
ASSINIBOIA       N/A     43  36  75 E8          N/A
$$



USA.gov is the U.S. government's official web portal to all federal, state and local government web resources and services.